Tracking 20724 objects as of 2-Jun-2020
HD Live streaming from Space Station
objects crossing your sky now

ARIANE 5 DEB (SYLDA)

Track ARIANE 5 DEB (SYLDA) now!


NORAD ID: 43273
Int'l Code: 2018-033C
Perigee: 271.0 km
Apogee: 29,852.1 km
Inclination: 2.9 °
Period: 520.4 minutes
Semi major axis: 21432 km
RCS: Unknown
Launch date: April 5, 2018
Source: France (FR)
Launch site: FRENCH GUIANA (FRGUI)

Note: This is SATELLITE DEBRIS
aabbcc
Your satellite tracking list
Your tracking list is empty




NASA's NSSDC Master Catalog

Two Line Element Set (TLE):
1 43273U 18033C   20153.75344848 +.00005843 +00000-0 +15622-2 0  9996
2 43273 002.8518 329.4449 6900981 206.3043 089.8633 02.76688908020015
Source of the keplerian elements: AFSPC